This is the latest recevied weather packets stored in our database for station/object KB3AWQ. If no packets are shown the sender has not sent any weather packets the latest 10 day(s).
| Time | Temp. | Humidity | Pressure | Rain* | Wind** | Luminosity | Snow |
|---|---|---|---|---|---|---|---|
| 1777585767 | 13.33° C | 69% | 1010.2 hPa | 0 mm | - | 122 W/m² | - |
| 1777585466 | 13.33° C | 69% | 1010.1 hPa | 0 mm | - | 116 W/m² | - |
| 1777585166 | 13.33° C | 69% | 1010.1 hPa | 0 mm | - | 120 W/m² | - |
| 1777584867 | 13.33° C | 69% | 1010 hPa | 0 mm | - | 120 W/m² | - |
| 1777584567 | 13.33° C | 69% | 1010 hPa | 0 mm | - | 131 W/m² | - |
| 1777584267 | 13.33° C | 69% | 1010 hPa | 0 mm | - | 175 W/m² | - |
| 1777583967 | 13.33° C | 70% | 1010 hPa | 0 mm | - | 142 W/m² | - |
| 1777583667 | 13.33° C | 72% | 1009.9 hPa | 0 mm | - | 147 W/m² | - |
| 1777583367 | 13.33° C | 71% | 1009.9 hPa | 0 mm | - | 118 W/m² | - |
| 1777583069 | 13.33° C | 72% | 1009.9 hPa | 0 mm | - | 132 W/m² | - |
| 1777582766 | 13.33° C | 75% | 1009.8 hPa | 0 mm | - | 212 W/m² | - |
| 1777582466 | 12.78° C | 77% | 1009.7 hPa | 0 mm | - | 247 W/m² | - |
| 1777582167 | 12.78° C | 78% | 1009.7 hPa | 0 mm | - | 208 W/m² | - |
| 1777581868 | 12.78° C | 76% | 1009.7 hPa | 0 mm | - | 145 W/m² | - |
| 1777581567 | 13.33° C | 75% | 1009.7 hPa | 0 mm | - | 80 W/m² | - |
| 1777581267 | 13.33° C | 73% | 1009.7 hPa | 0 mm | - | 57 W/m² | - |
| 1777580967 | 13.33° C | 72% | 1009.6 hPa | 0 mm | - | 66 W/m² | - |
| 1777580667 | 13.33° C | 71% | 1009.5 hPa | 0 mm | - | 83 W/m² | - |
| 1777580367 | 13.33° C | 70% | 1009.5 hPa | 0 mm | - | 85 W/m² | - |
| 1777580066 | 13.33° C | 68% | 1009.4 hPa | 0 mm | - | 110 W/m² | - |
| 1777579771 | 13.33° C | 69% | 1009.4 hPa | 0 mm | - | 160 W/m² | - |
| 1777579467 | 13.33° C | 69% | 1009.2 hPa | 0 mm | - | 236 W/m² | - |
| 1777579168 | 13.33° C | 71% | 1009.2 hPa | 0 mm | - | 220 W/m² | - |
| 1777578867 | 13.89° C | 70% | 1009.2 hPa | 0 mm | - | 138 W/m² | - |
| 1777578568 | 13.89° C | 72% | 1009.2 hPa | 0 mm | - | 117 W/m² | - |
* Rain latest hour (hover to see other rain measurements)
** Current wind speed in m/s (hover to see current wind gust speed)